Lexington Weather

Lexington, Massachusetts, USA

44°F
4/22/2024 8:58am 
  • Lexington Conditions: Clear
  • Temperature: 43.5°F / 6.4°CWarmer 3.2°F than last hour.
  • Dew Point: 26.6°FDecreased 2.2°Fsince last hour.
  • Relative Humidity: 51%Decreased 12.0% since last hour.
  • Wind: Calm, 10-min avg: Calm, gust: 1 mph
  • Barometer: 29.96 in Steady
  • Visibility: 10 miles
  • Rain Today: 0.00 in
  •   

Regional Weather Roundup
for Boston, MA

        
000
ASUS41 KBOX 170010
RWRBOX

REGIONAL WEATHER ROUNDUP
NATIONAL WEATHER SERVICE BOSTON/NORTON MA
800 PM EDT TUE APR 16 2024

NOTE:  "FAIR" INDICATES FEW OR NO CLOUDS BELOW 12,000 FEET WITH NO 
SIGNIFICANT WEATHER AND/OR OBSTRUCTIONS TO VISIBILITY.

MAZALL-170100-
EASTERN MASSACHUSETTS
  
CITY           SKY/WX    TMP DP  RH WIND       PRES   REMARKS
BOSTON         PTCLDY    63  30  28 NW8       30.07R                  
6HR MIN TEMP:  63; 6HR MAX TEMP:  68;                                

BEVERLY        CLEAR     58  30  34 CALM      30.07R                  
LAWRENCE       PTCLDY    57  32  38 N3        30.09R                  
BEDFORD        PTCLDY    60  29  30 CALM      30.06R                  
NORWOOD        PTCLDY    63  32  31 CALM      30.08R                  
MARSHFIELD     CLEAR     52  39  62 CALM      30.08R                  
PLYMOUTH       PTCLDY    55  38  52 CALM      30.07R                  
TAUNTON        PTCLDY    61  32  33 NW3       30.07R                  
NEW BEDFORD    CLEAR     57  40  52 CALM      30.07R                  
$$

MAZALL-170100-
CAPE COD AND THE ISLANDS
  
CITY           SKY/WX    TMP DP  RH WIND       PRES   REMARKS
FALMOUTH       CLEAR     52  37  58 SW6       30.08R                  
HYANNIS        CLEAR     51  41  68 S3        30.08R                  
CHATHAM        CLEAR     51  43  74 SW6       30.09R                  
PROVINCETOWN   CLEAR     54  41  61 S6        30.09R                  
NANTUCKET      CLEAR     44  38  79 S7        30.10R                  
MARTHAS VNYRD  CLEAR     50  42  74 SW6       30.08R                  
$$
 
MAZALL-170100-
CENTRAL AND WESTERN MASSACHUSETTS
  
CITY           SKY/WX    TMP DP  RH WIND       PRES   REMARKS
WORCESTER      CLEAR     57  28  33 W6        30.09R                  
6HR MIN TEMP:  57; 6HR MAX TEMP:  64;                                

FITCHBURG      CLEAR     60  29  30 CALM      30.09R                  
ORANGE         PTCLDY    59  29  31 W5        30.09R                  
SPRINGFIELD    PTCLDY    58  29  32 NW7       30.07R                  
WESTFIELD      CLEAR     61  31  32 NW5       30.10R                  
NORTH ADAMS    CLEAR     59  29  31 W12       30.11R                  
PITTSFIELD     CLEAR     55  28  35 W9        30.11R                  
$$
 
RIZALL-170100-
RHODE ISLAND
  
CITY           SKY/WX    TMP DP  RH WIND       PRES   REMARKS
PROVIDENCE     PTCLDY    62  30  29 NW9       30.08R                  
6HR MIN TEMP:  62; 6HR MAX TEMP:  70;                                

NEWPORT        CLEAR     60  34  37 NW8       30.08R                  
BLOCK ISLAND   CLEAR     51  39  63 SW15      30.10R                  
SMITHFIELD     CLEAR     59  30  33 NW6       30.09R                  
WESTERLY       CLEAR     56  40  55 SW3       30.09R                  
$$
 
CTZALL-170100-
CONNECTICUT
  
CITY           SKY/WX    TMP DP  RH WIND       PRES   REMARKS
BRADLEY INTL   PTCLDY    63  29  27 N5        30.10R                  
6HR MIN TEMP:  63; 6HR MAX TEMP:  71;                                

HARTFORD       CLEAR     64  30  27 N9        30.09R                  
PLAINVILLE     FAIR      63  29  27 NW5       30.10R                  
BRIDGEPORT     PTCLDY    67  28  23 W5        30.08R                  
DANBURY        CLEAR     63  28  26 W3        30.11R                  
GROTON         CLEAR     58  36  43 CALM      30.08R                  
NEW HAVEN      PTCLDY    60  39  45 S5        30.09R                  
CHESTER        CLEAR     63  27  25 NW3       30.10R                  
MERIDEN        CLEAR     64  29  26 N7        30.09R                  
WILLIMANTIC    CLEAR     62  28  27 NW7       30.09S                  
OXFORD         CLEAR     58  32  37 N9        30.11R                  
$$

MEZ002-015-021-024-NHZ003-005-008-011-012-014-VTZ005-008-170100-
NORTHERN NEW ENGLAND
  
CITY           SKY/WX    TMP DP  RH WIND       PRES   REMARKS
PORTLAND ME    CLEAR     55  31  39 NW14      30.08R                  
6HR MIN TEMP:  55; 6HR MAX TEMP:  65;                                

BANGOR ME      CLOUDY    47  28  47 N17G28    30.11R                  
CONCORD NH     PTCLDY    57  29  34 N5        30.08R                  
MANCHESTER NH  PTCLDY    61  30  31 NW8       30.07R                  
NASHUA NH      PTCLDY    59  31  34 CALM      30.09R                  
PORTSMOUTH NH  PTCLDY    59  29  31 N9        30.07R                  
JAFFREY NH       N/A     54  32  43 CALM      30.09R                  
KEENE NH       CLEAR     55  33  43 CALM      30.09R                  
BURLINGTON VT  MOCLDY    51  31  46 N10       30.18R                  
MT. WASHINGTON BLWGSNOW  23  23 100 NW61G69     N/A  VSB 1/16WCI   0  
$$

NYZ052-076-170100-
EASTERN NEW YORK
  
CITY           SKY/WX    TMP DP  RH WIND       PRES   REMARKS
ALBANY         PTCLDY    57  27  31 W9        30.14R                  
6HR MIN TEMP:  57; 6HR MAX TEMP:  66;                                

NEW YORK CITY  PTCLDY    63  34  33 SE8       30.10R                  
6HR MIN TEMP:  63; 6HR MAX TEMP:  74;                                

$$
 
ANZALL-170100-
MARINE OBSERVATIONS
  
STATION/POSITION TIME  TEMP    WIND        PRES    VSBY  WAVE
                       AIR SEA DIR/SP/G                  HT/PER
                 (UTC) (F)     (DEG/KT/KT) (MB)    (MI)  (FT/S)
BOSTON BUOY      2350   49     130/  4/  6 1018.1R         2/ 9
BUZZARDS BAY     2300   51     230/ 13/ 14 1018.7R
NANTUCKET SOUND  2350   51 47  230/ 12/ 14 1018.2R         1/ 8
MASS BAY-STELLWA 2204   50 47  160/  8/ 10 1017.7R  1 7/8  3/11
ISLE OF SHOALS   2300   63     300/ 18/ 19 1016.7R
S OF BLOCK IS    2326      46                N/A           4/ 8
$$

......................KEY.........................
  SKY/WX - SKY CONDITION/PRESENT WEATHER
  TMP    - TEMPERATURE IN FAHRENHEIT
  DWPT   - DEWPOINT IN FAHRENHEIT
  RH     - RELATIVE HUMIDITY IN PERCENT
  WIND   - DIRECTION AND SPEED IN MPH
  PRES   - MEAN SEA LEVEL PRESSURE IN INCHES OF HG
  WCI    - WIND CHILL INDEX
  VSB    - VISIBILITY IN MILES
  HX     - HEAT INDEX
  TC     - TEMPERATURE IN CELSIUS
  VRB    - VARIABLE WIND DIRECTION
  N/A    - NOT AVAILABLE
  
      

Other recent Regional Weather Roundups

Mon Apr 22, 8:10am EDT

Mon Apr 22, 7:10am EDT

Mon Apr 22, 6:10am EDT

Mon Apr 22, 5:10am EDT

Mon Apr 22, 4:10am EDT

Mon Apr 22, 3:10am EDT

Mon Apr 22, 2:10am EDT

Mon Apr 22, 1:10am EDT

Mon Apr 22, 12:10am EDT

Sun Apr 21, 11:10pm EDT

Sun Apr 21, 10:10pm EDT

Sun Apr 21, 9:10pm EDT

Sun Apr 21, 8:10pm EDT

Sun Apr 21, 7:10pm EDT

Sun Apr 21, 6:10pm EDT

Sun Apr 21, 5:10pm EDT

Sun Apr 21, 4:10pm EDT

Sun Apr 21, 3:10pm EDT

Sun Apr 21, 2:10pm EDT

Sun Apr 21, 1:10pm EDT

Sun Apr 21, 12:10pm EDT

Sun Apr 21, 11:10am EDT

Sun Apr 21, 10:10am EDT

Sun Apr 21, 9:10am EDT

Sun Apr 21, 8:10am EDT

Sun Apr 21, 7:10am EDT

Sun Apr 21, 6:10am EDT

Sun Apr 21, 5:10am EDT

Sun Apr 21, 4:10am EDT

Sun Apr 21, 3:10am EDT

Sun Apr 21, 2:10am EDT

Sun Apr 21, 1:10am EDT

Sun Apr 21, 12:10am EDT

Sat Apr 20, 11:10pm EDT

Sat Apr 20, 10:10pm EDT

Sat Apr 20, 9:10pm EDT

Sat Apr 20, 8:10pm EDT

Sat Apr 20, 7:10pm EDT

Sat Apr 20, 6:10pm EDT

Sat Apr 20, 5:10pm EDT

Sat Apr 20, 4:10pm EDT

Sat Apr 20, 3:10pm EDT

Sat Apr 20, 2:10pm EDT

Sat Apr 20, 1:10pm EDT

Sat Apr 20, 12:10pm EDT

Sat Apr 20, 11:10am EDT

Sat Apr 20, 10:10am EDT

Sat Apr 20, 9:10am EDT

Sat Apr 20, 8:10am EDT

Sat Apr 20, 7:10am EDT

Sat Apr 20, 6:10am EDT

Sat Apr 20, 5:10am EDT

Sat Apr 20, 4:10am EDT

Sat Apr 20, 3:10am EDT

Sat Apr 20, 2:10am EDT

Sat Apr 20, 1:10am EDT

Sat Apr 20, 12:10am EDT

Fri Apr 19, 11:10pm EDT

Fri Apr 19, 10:10pm EDT

Fri Apr 19, 9:10pm EDT

Fri Apr 19, 8:10pm EDT

Fri Apr 19, 7:10pm EDT

Fri Apr 19, 6:10pm EDT

Fri Apr 19, 5:10pm EDT

Fri Apr 19, 4:10pm EDT

Fri Apr 19, 3:10pm EDT

Fri Apr 19, 2:10pm EDT

Fri Apr 19, 1:10pm EDT

Fri Apr 19, 12:10pm EDT

Fri Apr 19, 11:10am EDT

Fri Apr 19, 10:10am EDT

Fri Apr 19, 9:10am EDT

Fri Apr 19, 8:10am EDT

Fri Apr 19, 7:10am EDT

Fri Apr 19, 6:10am EDT

Fri Apr 19, 5:10am EDT

Fri Apr 19, 4:10am EDT

Fri Apr 19, 3:10am EDT

Fri Apr 19, 2:10am EDT

Fri Apr 19, 1:10am EDT

Fri Apr 19, 12:10am EDT

Thu Apr 18, 11:10pm EDT

Thu Apr 18, 10:10pm EDT

Thu Apr 18, 9:10pm EDT

Thu Apr 18, 8:10pm EDT

Thu Apr 18, 7:10pm EDT

Thu Apr 18, 6:10pm EDT

Thu Apr 18, 5:10pm EDT

Thu Apr 18, 4:10pm EDT

Thu Apr 18, 3:10pm EDT

Thu Apr 18, 2:10pm EDT

Thu Apr 18, 1:10pm EDT

Thu Apr 18, 12:10pm EDT

Thu Apr 18, 11:10am EDT

Thu Apr 18, 10:10am EDT

Thu Apr 18, 9:10am EDT

Thu Apr 18, 8:10am EDT

Thu Apr 18, 7:10am EDT

Thu Apr 18, 6:10am EDT

Thu Apr 18, 5:10am EDT

Thu Apr 18, 4:10am EDT

Thu Apr 18, 3:10am EDT

Thu Apr 18, 2:10am EDT

Thu Apr 18, 1:10am EDT

Thu Apr 18, 12:10am EDT

Wed Apr 17, 11:10pm EDT

Wed Apr 17, 10:10pm EDT

Wed Apr 17, 9:10pm EDT

Wed Apr 17, 8:10pm EDT

Wed Apr 17, 7:10pm EDT

Wed Apr 17, 6:10pm EDT

Wed Apr 17, 5:10pm EDT

Wed Apr 17, 4:10pm EDT

Wed Apr 17, 3:10pm EDT

Wed Apr 17, 2:10pm EDT

Wed Apr 17, 1:10pm EDT

Wed Apr 17, 12:10pm EDT

Wed Apr 17, 11:10am EDT

Wed Apr 17, 10:10am EDT

Wed Apr 17, 9:10am EDT

Wed Apr 17, 8:10am EDT

Wed Apr 17, 7:10am EDT

Wed Apr 17, 6:10am EDT

Wed Apr 17, 5:10am EDT

Wed Apr 17, 4:10am EDT

Wed Apr 17, 3:10am EDT

Wed Apr 17, 2:10am EDT

Wed Apr 17, 1:10am EDT

Wed Apr 17, 12:10am EDT

Tue Apr 16, 11:10pm EDT

Tue Apr 16, 10:10pm EDT

Tue Apr 16, 9:10pm EDT

Tue Apr 16, 7:10pm EDT

Tue Apr 16, 6:10pm EDT

Tue Apr 16, 5:10pm EDT

Tue Apr 16, 4:10pm EDT

Tue Apr 16, 3:10pm EDT

Tue Apr 16, 2:10pm EDT

Tue Apr 16, 1:10pm EDT

Tue Apr 16, 12:10pm EDT

Tue Apr 16, 11:10am EDT

Tue Apr 16, 10:10am EDT

Tue Apr 16, 9:10am EDT

Tue Apr 16, 8:10am EDT

Tue Apr 16, 7:10am EDT

Tue Apr 16, 6:10am EDT

Tue Apr 16, 5:10am EDT

Tue Apr 16, 4:10am EDT

Tue Apr 16, 3:10am EDT

Tue Apr 16, 2:10am EDT

Tue Apr 16, 1:10am EDT

Tue Apr 16, 12:10am EDT

Mon Apr 15, 11:10pm EDT

Mon Apr 15, 10:10pm EDT

Mon Apr 15, 9:10pm EDT

Mon Apr 15, 8:10pm EDT

Mon Apr 15, 7:10pm EDT

Mon Apr 15, 6:10pm EDT

Mon Apr 15, 5:10pm EDT

Mon Apr 15, 4:10pm EDT

Mon Apr 15, 3:10pm EDT

Mon Apr 15, 2:10pm EDT

Mon Apr 15, 1:10pm EDT

Mon Apr 15, 12:10pm EDT

Mon Apr 15, 11:10am EDT

Mon Apr 15, 10:10am EDT

Mon Apr 15, 9:10am EDT